This demonstration page uses our WeatherBlox Daily Observations layout. Learn more.

Left ArrowRight Arrow

Hourly Observations for November 28, 2019

Temp ( °F °C ) Dew Point ( °F °C ) Humidity (%) Winds ( mph kmh ) Pressure ( in mb ) Visibility ( mi km ) Precip ( " mm )
1:53 am 01:53 Clear 22 -5.6 18 -7.8 85 85 ENE 6 9 30.45 1031 10 16 0.00 0.00
2:53 am 02:53 Clear 24 -4.4 19 -7.2 81 81 E 5 7 30.47 1032 10 16 0.00 0.00
3:53 am 03:53 Cloudy 25 -3.9 20 -6.7 81 81 ESE 7 11 30.45 1031 10 16 0.00 0.00
4:53 am 04:53 Cloudy 26 -3.3 20 -6.7 78 78 ESE 9 15 30.45 1031 10 16 0.00 0.00
5:53 am 05:53 Cloudy 26 -3.3 20 -6.7 78 78 ESE 9 15 30.46 1031 10 16 0.00 0.00
6:53 am 06:53 Cloudy 26 -3.3 21 -6.1 81 81 ESE 10 17 30.45 1031 10 16 0.00 0.00
7:53 am 07:53 Cloudy with Light Snow 26 -3.3 22 -5.6 84 84 SE 10 17 30.45 1031 8 13 0.00 0.00
8:07 am 08:07 Cloudy with Light Snow 26 -3.3 22 -5.6 84 84 SE 8 13 30.47 1032 2 3 0.00 0.00
8:21 am 08:21 Cloudy with Light Snow 26 -3.3 23 -5 88 88 SSE 9 15 30.48 1032 1 2 0.00 0.00
8:39 am 08:39 Cloudy with Light Snow 26 -3.3 23 -5 88 88 SSE 10 17 30.48 1032 1 1 0.00 0.00
8:53 am 08:53 Mostly Cloudy with Light Snow 26 -3.3 23 -5 88 88 SE 9 15 30.46 1032 1 1 0.00 0.00
9:21 am 09:21 Cloudy with Light Snow 26 -3.3 24 -4.4 92 92 SE 10 17 30.47 1032 1 2 0.01 0.25
9:39 am 09:39 Cloudy with Light Snow 26 -3.3 24 -4.4 92 92 SE 9 15 30.46 1032 1 1 0.01 0.25
9:53 am 09:53 Cloudy with Light Snow 27 -2.8 24 -4.4 89 89 SE 12 19 30.42 1030 1 1 0.01 0.25
10:07 am 10:07 Cloudy with Light Snow 27 -2.8 24 -4.4 89 89 SE 10 17 30.44 1031 1 2 0.00 0.00
10:38 am 10:38 Cloudy with Light Snow 27 -3 25 -4 93 93 SE 13 20 30.43 1031 2 3 0.00 0.00
10:51 am 10:51 Cloudy with Light Snow 27 -3 25 -4 93 93 SE 10 17 30.43 1031 3 5 0.00 0.00
10:53 am 10:53 Cloudy with Light Snow 28 -2.2 25 -3.9 88 88 ESE 13 20 30.41 1030 3 5 0.00 0.00
11:16 am 11:16 Cloudy with Light Snow 28 -2.2 25 -3.9 88 88 SE 13 20 30.42 1030 3 4 0.00 0.00
11:30 am 11:30 Cloudy with Light Snow 28 -2 25 -4 86 86 SE 13 20 30.41 1030 1 2 0.00 0.00
11:53 am 11:53 Cloudy with Light Snow 28 -2.2 25 -3.9 88 88 SE 13 20 30.38 1029 1 2 0.00 0.00
12:01 pm 12:01 Cloudy with Light Snow 28 -2.2 26 -3.3 92 92 SE 10 17 30.40 1030 1 1 0.00 0.00
12:12 pm 12:12 Cloudy with Light Snow 28 -2.2 26 -3.3 92 92 SE 12 19 30.40 1030 1 2 0.00 0.00
12:21 pm 12:21 Cloudy with Light Snow 28 -2.2 26 -3.3 92 92 SE 12 19 30.39 1029 1 2 0.00 0.00
12:31 pm 12:31 Cloudy with Light Snow 29 -1.7 26 -3.3 89 89 SE 14 22 30.39 1029 1 2 0.00 0.00
12:49 pm 12:49 Cloudy with Light Snow 28 -2 27 -3 93 93 SSE 12 19 30.38 1029 1 1 0.00 0.00
12:53 pm 12:53 Cloudy with Light Snow 29 -1.7 26 -3.3 89 89 SE 13 20 30.36 1028 1 1 0.00 0.00
1:00 pm 13:00 Cloudy with Light Snow 28 -2 27 -3 93 93 SE 14 22 30.39 1029 1 2 0.00 0.00
1:14 pm 13:14 Cloudy with Light Snow 29 -1.7 27 -2.8 92 92 SE 12 19 30.38 1029 2 3 0.00 0.00
1:41 pm 13:41 Cloudy with Mist and Fog 29 -1.7 27 -2.8 92 92 SSE 12 19 30.36 1028 3 5 0.00 0.00
1:53 pm 13:53 Cloudy with Mist and Fog 29 -1.7 27 -2.8 92 92 SE 15 24 30.32 1027 5 8 0.00 0.00
2:53 pm 14:53 Cloudy 29 -1.7 27 -2.8 92 92 SE 14 22 30.31 1026 7 11 0.00 0.00
3:53 pm 15:53 Cloudy 30 -1.1 27 -2.8 88 88 SSE 10 17 30.31 1026 8 13 0.00 0.00
4:38 pm 16:38 Cloudy with Mist and Fog 30 -1 28 -2 93 93 SE 14 22 30.31 1027 4 6 0.00 0.00
4:53 pm 16:53 Cloudy with Mist and Fog 30 -1.1 28 -2.2 92 92 SE 12 19 30.29 1026 5 8 0.00 0.00
5:53 pm 17:53 Cloudy with Mist and Fog 30 -1.1 28 -2.2 92 92 SE 15 24 30.26 1025 4 6 0.00 0.00
6:53 pm 18:53 Cloudy 30 -1.1 28 -2.2 92 92 SSE 14 22 30.30 1026 7 11 0.00 0.00
7:32 pm 19:32 Cloudy with Light Freezing Rain 30 -1.1 28 -2.2 92 92 SSE 12 19 30.32 1027 3 5 0.00 0.00
7:45 pm 19:45 Cloudy with Mist and Fog 30 -1 28 -2 93 93 SSE 12 19 30.32 1027 3 5 0.00 0.00
7:53 pm 19:53 Cloudy with Mist and Fog 30 -1.1 28 -2.2 92 92 SSE 12 19 30.29 1026 3 5 0.00 0.00
8:53 pm 20:53 Cloudy with Mist and Fog 30 -1.1 29 -1.7 96 96 SSE 12 19 30.27 1025 4 6 0.00 0.00
9:53 pm 21:53 Cloudy with Mist and Fog 30 -1.1 29 -1.7 96 96 SSE 9 15 30.27 1025 4 6 0.00 0.00
10:53 pm 22:53 Cloudy with Mist and Fog 31 -0.6 29 -1.7 92 92 SSE 12 19 30.26 1025 3 5 0.00 0.00
11:53 pm 23:53 Cloudy with Mist and Fog 31 -0.6 30 -1.1 96 96 SE 10 17 30.24 1024 3 5 0.00 0.00

Powered by AerisWeather